| time (UTC) | temp F | wind direction | speed MPH | gust MPH | rain 1hr in | rain 24hr in | rain mn in | humidity % | barometer mb |
| 20260508200030 | 59 | 345 | 0.0 | 3.0 | 0.00 | 0.31 | 0.31 | 96 | 1017.8 |
| 20260508194537 | 59 | 340 | 1.0 | 5.0 | 0.00 | 0.31 | 0.31 | 96 | 1017.7 |
| 20260508193027 | 59 | 303 | 0.0 | 2.0 | 0.00 | 0.31 | 0.31 | 96 | 1017.5 |
| 20260508191532 | 59 | 348 | 2.0 | 6.0 | 0.00 | 0.31 | 0.31 | 96 | 1017.4 |
| 20260508190024 | 59 | 8 | 0.0 | 5.0 | 0.00 | 0.31 | 0.31 | 96 | 1017.1 |
| 20260508184523 | 59 | 58 | 1.0 | 5.0 | 0.00 | 0.31 | 0.31 | 96 | 1016.8 |
| 20260508183026 | 59 | 37 | 4.0 | 6.0 | 0.00 | 0.31 | 0.31 | 96 | 1016.4 |
| 20260508181517 | 59 | 59 | 5.0 | 10.0 | 0.00 | 0.31 | 0.31 | 96 | 1016.1 |
| 20260508180019 | 59 | 69 | 5.0 | 10.0 | 0.00 | 0.31 | 0.31 | 96 | 1015.9 |
| 20260508174512 | 59 | 66 | 4.0 | 9.0 | 0.00 | 0.31 | 0.31 | 96 | 1015.8 |
| 20260508173011 | 59 | 37 | 8.0 | 13.0 | 0.00 | 0.31 | 0.31 | 96 | 1015.7 |
| 20260508171511 | 58 | 23 | 6.0 | 12.0 | 0.00 | 0.31 | 0.31 | 96 | 1015.5 |
| 20260508170009 | 58 | 57 | 8.0 | 15.0 | 0.00 | 0.31 | 0.31 | 96 | 1015.4 |
| 20260508164507 | 58 | 59 | 7.0 | 10.0 | 0.00 | 0.31 | 0.31 | 97 | 1015.3 |
| 20260508163005 | 58 | 79 | 5.0 | 8.0 | 0.00 | 0.31 | 0.31 | 97 | 1015.1 |
| 20260508161504 | 58 | 49 | 3.0 | 8.0 | 0.00 | 0.31 | 0.31 | 97 | 1014.9 |
| 20260508160009 | 58 | 168 | 0.0 | 11.0 | 0.00 | 0.31 | 0.31 | 97 | 1014.6 |
| 20260508154504 | 57 | 148 | 5.0 | 21.0 | 0.01 | 0.31 | 0.31 | 97 | 1014.8 |
| 20260508153002 | 58 | 73 | 8.0 | 14.0 | 0.02 | 0.31 | 0.31 | 97 | 1014.9 |
| 20260508151501 | 58 | 116 | 5.0 | 15.0 | 0.02 | 0.31 | 0.31 | 96 | 1014.9 |
| 20260508150110 | 58 | 350 | 2.0 | 17.0 | 0.02 | 0.31 | 0.31 | 96 | 1014.8 |
| 20260508144606 | 58 | 119 | 11.0 | 24.0 | 0.02 | 0.31 | 0.31 | 96 | 1014.7 |
| 20260508143134 | 59 | 89 | 6.0 | 18.0 | 0.01 | 0.30 | 0.30 | 96 | 1014.5 |
| 20260508141606 | 59 | 96 | 8.0 | 21.0 | 0.01 | 0.30 | 0.30 | 96 | 1014.4 |
| 20260508140111 | 58 | 86 | 10.0 | 19.0 | 0.01 | 0.30 | 0.30 | 95 | 1014.4 |
| 20260508134558 | 58 | 68 | 11.0 | 22.0 | 0.01 | 0.28 | 0.28 | 95 | 1014.3 |
| 20260508133107 | 58 | 82 | 10.0 | 23.0 | 0.01 | 0.28 | 0.28 | 94 | 1014.3 |
| 20260508131600 | 58 | 127 | 10.0 | 18.0 | 0.01 | 0.28 | 0.28 | 93 | 1014.4 |
| 20260508130059 | 58 | 132 | 11.0 | 21.0 | 0.01 | 0.28 | 0.28 | 92 | 1014.3 |
| 20260508124554 | 58 | 102 | 9.0 | 21.0 | 0.01 | 0.28 | 0.28 | 90 | 1014.3 |
| 20260508123054 | 58 | 137 | 10.0 | 24.0 | 0.01 | 0.28 | 0.28 | 90 | 1014.4 |
| 20260508121552 | 58 | 135 | 9.0 | 26.0 | 0.01 | 0.28 | 0.28 | 90 | 1014.3 |
| 20260508120051 | 58 | 117 | 16.0 | 27.0 | 0.02 | 0.28 | 0.28 | 91 | 1014.2 |
| 20260508114549 | 58 | 131 | 12.0 | 24.0 | 0.02 | 0.28 | 0.28 | 89 | 1014.3 |
| 20260508113049 | 58 | 153 | 11.0 | 28.0 | 0.04 | 0.28 | 0.28 | 88 | 1014.2 |
| 20260508111556 | 59 | 145 | 15.0 | 28.0 | 0.06 | 0.28 | 0.28 | 92 | 1014.3 |
| 20260508110045 | 59 | 148 | 17.0 | 24.0 | 0.09 | 0.27 | 0.27 | 91 | 1014.2 |
| 20260508104544 | 59 | 138 | 12.0 | 24.0 | 0.09 | 0.25 | 0.25 | 91 | 1014.4 |
| 20260508103048 | 58 | 133 | 10.0 | 24.0 | 0.09 | 0.24 | 0.24 | 91 | 1014.5 |
| 20260508101544 | 59 | 137 | 11.0 | 27.0 | 0.10 | 0.21 | 0.21 | 92 | 1014.3 |
| 20260508100037 | 59 | 163 | 18.0 | 26.0 | 0.09 | 0.18 | 0.18 | 92 | 1014.2 |
| 20260508094535 | 59 | 156 | 13.0 | 22.0 | 0.06 | 0.16 | 0.16 | 91 | 1014.2 |
| 20260508093036 | 60 | 139 | 11.0 | 23.0 | 0.07 | 0.15 | 0.15 | 91 | 1014.1 |
| 20260508091530 | 61 | 97 | 6.0 | 11.0 | 0.04 | 0.11 | 0.11 | 90 | 1014.1 |
| 20260508090033 | 61 | 147 | 4.0 | 11.0 | 0.03 | 0.09 | 0.09 | 90 | 1014.2 |
| 20260508084525 | 60 | 108 | 5.0 | 10.0 | 0.05 | 0.09 | 0.09 | 90 | 1014.2 |
| 20260508083024 | 60 | 201 | 3.0 | 9.0 | 0.04 | 0.08 | 0.08 | 90 | 1014.1 |
| 20260508081525 | 60 | 148 | 5.0 | 7.0 | 0.05 | 0.07 | 0.07 | 90 | 1014.1 |
| 20260508080031 | 60 | 143 | 3.0 | 10.0 | 0.04 | 0.06 | 0.06 | 88 | 1014.0 |
| 20260508074518 | 61 | 125 | 3.0 | 9.0 | 0.04 | 0.05 | 0.05 | 88 | 1014.0 |
| 20260508073020 | 61 | 136 | 5.0 | 11.0 | 0.03 | 0.03 | 0.03 | 87 | 1014.1 |
| 20260508071515 | 61 | 120 | 5.0 | 12.0 | 0.02 | 0.02 | 0.02 | 86 | 1014.0 |
| 20260508070020 | 62 | 148 | 4.0 | 12.0 | 0.02 | 0.02 | 0.02 | 83 | 1013.9 |
| 20260508064528 | 62 | 165 | 5.0 | 11.0 | 0.01 | 0.01 | 0.01 | 81 | 1013.9 |
| 20260508063010 | 62 | 177 | 3.0 | 8.0 | 0.00 | 0.00 | 0.00 | 80 | 1013.8 |
| 20260508061517 | 63 | 187 | 6.0 | 10.0 | 0.00 | 0.00 | 0.00 | 78 | 1013.8 |
| 20260508060009 | 63 | 231 | 6.0 | 11.0 | 0.00 | 0.00 | 0.00 | 76 | 1013.7 |
| 20260508054508 | 63 | 175 | 5.0 | 10.0 | 0.00 | 0.03 | 0.00 | 76 | 1013.5 |
| 20260508053007 | 63 | 216 | 3.0 | 8.0 | 0.00 | 0.03 | 0.00 | 76 | 1013.5 |
| 20260508051506 | 62 | 162 | 2.0 | 5.0 | 0.00 | 0.03 | 0.00 | 77 | 1013.5 |
| 20260508050009 | 62 | 178 | 3.0 | 6.0 | 0.00 | 0.08 | 0.00 | 78 | 1013.3 |
| 20260508044506 | 62 | 175 | 0.0 | 4.0 | 0.00 | 0.08 | 0.00 | 79 | 1013.3 |
| 20260508043005 | 62 | 198 | 3.0 | 6.0 | 0.00 | 0.08 | 0.00 | 79 | 1013.2 |
| 20260508041504 | 62 | 201 | 2.0 | 5.0 | 0.00 | 0.08 | 0.00 | 80 | 1013.2 |
| 20260508040007 | 62 | 197 | 2.0 | 6.0 | 0.00 | 0.13 | 0.00 | 81 | 1013.2 |
| 20260508034502 | 62 | 189 | 2.0 | 7.0 | 0.00 | 0.13 | 0.00 | 81 | 1013.2 |
| 20260508033102 | 62 | 179 | 1.0 | 5.0 | 0.00 | 0.13 | 0.00 | 81 | 1013.3 |
| 20260508031559 | 62 | 193 | 4.0 | 6.0 | 0.00 | 0.13 | 0.00 | 80 | 1013.2 |
| 20260508030058 | 62 | 212 | 4.0 | 8.0 | 0.00 | 0.13 | 0.00 | 79 | 1013.3 |
| 20260508024555 | 62 | 215 | 4.0 | 8.0 | 0.00 | 0.17 | 0.00 | 77 | 1013.4 |
| 20260508023053 | 62 | 186 | 3.0 | 9.0 | 0.00 | 0.17 | 0.00 | 74 | 1013.5 |
| 20260508021551 | 62 | 151 | 4.0 | 12.0 | 0.00 | 0.17 | 0.00 | 72 | 1013.6 |
| 20260508020054 | 62 | 182 | 6.0 | 12.0 | 0.00 | 0.17 | 0.00 | 71 | 1013.9 |
| 20260508014547 | 62 | 208 | 5.0 | 9.0 | 0.00 | 0.21 | 0.00 | 70 | 1013.9 |
| 20260508013044 | 62 | 170 | 6.0 | 11.0 | 0.00 | 0.21 | 0.00 | 68 | 1013.9 |
| 20260508011543 | 62 | 162 | 4.0 | 9.0 | 0.00 | 0.21 | 0.00 | 65 | 1013.9 |
| 20260508010039 | 62 | 151 | 4.0 | 9.0 | 0.00 | 0.21 | 0.00 | 62 | 1014.0 |
| 20260508004541 | 62 | 166 | 3.0 | 7.0 | 0.00 | 0.24 | 0.00 | 59 | 1014.0 |
| 20260508003043 | 62 | 221 | 3.0 | 6.0 | 0.00 | 0.24 | 0.00 | 58 | 1014.2 |
| 20260508001535 | 62 | 198 | 4.0 | 8.0 | 0.00 | 0.24 | 0.00 | 58 | 1014.1 |
| 20260508000033 | 62 | 193 | 2.0 | 8.0 | 0.00 | 0.24 | 0.00 | 59 | 1014.3 |
| 20260507234543 | 62 | 198 | 4.0 | 8.0 | 0.00 | 0.25 | 0.00 | 59 | 1014.5 |
| 20260507233029 | 62 | 170 | 3.0 | 8.0 | 0.00 | 0.25 | 0.00 | 59 | 1014.8 |
| 20260507231526 | 63 | 200 | 4.0 | 9.0 | 0.00 | 0.25 | 0.00 | 58 | 1015.0 |
| 20260507230022 | 63 | 180 | 5.0 | 11.0 | 0.00 | 0.25 | 0.00 | 57 | 1015.3 |
| 20260507224520 | 63 | 160 | 6.0 | 11.0 | 0.00 | 0.25 | 0.00 | 56 | 1015.3 |
| 20260507223018 | 64 | 197 | 4.0 | 8.0 | 0.00 | 0.25 | 0.00 | 55 | 1015.3 |
| 20260507221515 | 64 | 183 | 3.0 | 9.0 | 0.00 | 0.25 | 0.00 | 52 | 1015.3 |
| 20260507220013 | 64 | 165 | 3.0 | 8.0 | 0.00 | 0.25 | 0.00 | 50 | 1015.5 |
| 20260507214510 | 64 | 198 | 4.0 | 10.0 | 0.00 | 0.25 | 0.25 | 48 | 1015.6 |
| 20260507213016 | 64 | 198 | 6.0 | 11.0 | 0.00 | 0.25 | 0.25 | 49 | 1015.5 |
| 20260507211508 | 64 | 162 | 5.0 | 11.0 | 0.00 | 0.25 | 0.25 | 49 | 1015.4 |
| 20260507210007 | 64 | 185 | 7.0 | 10.0 | 0.00 | 0.25 | 0.25 | 49 | 1015.4 |
| 20260507204506 | 65 | 184 | 6.0 | 11.0 | 0.00 | 0.25 | 0.25 | 48 | 1015.6 |
| 20260507203005 | 66 | 179 | 7.0 | 12.0 | 0.00 | 0.25 | 0.25 | 46 | 1015.8 |
| 20260507201506 | 66 | 222 | 7.0 | 14.0 | 0.00 | 0.25 | 0.25 | 44 | 1016.0 |